Regional Weather Roundup
Issued by NWS

Home | Current Version | Previous Version | Graphics & Text | Print | Product List | Glossary On
Versions: 1 2 3 4 5 6 7 8 9 10 11 12 13 14 15 16 17 18 19 20 21 22 23 24 25 26 27 28 29 30 31 32 33 34 35 36 37 38 39 40 41 42 43 44 45 46 47 48 49 50
000
ASUS43 KDMX 012007
RWRIA

WEATHER ROUNDUP FOR IOWA
NATIONAL WEATHER SERVICE DES MOINES IA
300 PM CDT TUE SEP 01 2015

NOTE: "FAIR" INDICATES FEW OR NO CLOUDS BELOW 12,000 FEET WITH NO
SIGNIFICANT WEATHER AND/OR OBSTRUCTIONS TO VISIBILITY.

* - THESE STATIONS ARE NOT NWS STATIONS...THUS NOT UNDER NWS
QUALITY CONTROL.  THEY ALSO DO NOT REPORT WEATHER SUCH
AS PRECIPITATION OR FOG.

IAZ001>003-012>014-020>022-031>034-043>046-012100-
   NORTHWEST IOWA

CITY           SKY/WX    TMP DP  RH WIND       PRES   REMARKS
CARROLL *      SUNNY     84  73  70 S12G18    29.95S HX  91
CHEROKEE *     PTSUNNY   84  72  65 S10       29.92S HX  89
DENISON *      SUNNY     84  73  70 S10G18    29.92S HX  91
LE MARS *      SUNNY     82  72  69 S9        29.90F HX  87
ORANGE CITY *  SUNNY     82  72  69 S9        29.91S HX  87
SHELDON *      SUNNY     81  70  69 S10       29.90S HX  84
SIOUX CITY     PTSUNNY   85  69  58 S10       29.89F HX  89
SPENCER        PTSUNNY   85  68  56 SW10      29.92S HX  88
STORM LAKE *   SUNNY     81  72  74 S12       29.95S HX  84
$$

IAZ055>058-069>071-079>083-090>094-012100-
   SOUTHWEST IOWA

CITY           SKY/WX    TMP DP  RH WIND       PRES   REMARKS
ATLANTIC *     SUNNY     86  72  62 S13       29.96S HX  92
AUDUBON *      SUNNY     84  73  70 S13       29.97S HX  91
CLARINDA *     SUNNY     88  73  62 S9G16     29.98S HX  96
COUNCIL BLFS * SUNNY     86  72  62 S13G18    29.95S HX  92
CRESTON *      SUNNY     86  72  62 S15       29.99F HX  92
LAMONI         MOSUNNY   89  70  53 S10       30.00F HX  94
RED OAK *        N/A    N/A N/A N/A MISG        N/A
SHENANDOAH *   SUNNY     90  72  55 S13       29.95F HX  96
$$

IAZ047>049-059>061-072>074-084-012100-
   CENTRAL IOWA

CITY           SKY/WX    TMP DP  RH WIND       PRES   REMARKS
AMES           MOSUNNY   87  73  62 SW12      29.96R HX  94
ANKENY *       SUNNY     88  73  62 S10       29.95S HX  96
CHARITON *     SUNNY     88  70  55 S13G20    29.99S HX  92
DES MOINES     CLOUDY    90  71  53 S13       29.96S HX  96
GRINNELL*      SUNNY     88  72  58 SW13      29.98F HX  94
KNOXVILLE *    SUNNY     88  72  58 SW8G16    29.97S HX  94
MARSHALLTOWN   MOSUNNY   87  73  62 S9        29.96F HX  94
PELLA *        SUNNY     91  75  59 SW10      29.99S HX 102
PERRY *          N/A     86  73  66 S7        29.96S HX  93
$$

IAZ004>006-015-016-023>025-035-036-012100-
   NORTH CENTRAL IOWA

CITY           SKY/WX    TMP DP  RH WIND       PRES   REMARKS
ALGONA *       SUNNY     84  73  70 S14       29.93F HX  91
CLARION *      SUNNY     84  73  70 SW13      29.95S HAZE    HX  91
ESTHERVILLE    PTSUNNY   82  70  66 S7        29.92S HX  86
FORT DODGE *   CLOUDY    84  72  65 S12       29.95F HX  89
MASON CITY       N/A     84  72  67 S14       29.96R HX  89
FOREST CITY *  SUNNY     82  70  65 SW9G16    29.94F HX  86
IOWA FALLS *     N/A     88  73  62 SW9       29.97S HX  96
$$

IAZ007>011-017>019-026>030-037>042-050>054-066-012100-
   NORTHEAST IOWA

CITY           SKY/WX    TMP DP  RH WIND       PRES   REMARKS
CEDAR RAPIDS   SUNNY     87  76  69 S10       29.97F HX  97
CHARLES CITY * SUNNY     84  77  79 S12       29.96F HX  94
CLINTON *      SUNNY     90  73  58 SW13      30.01F HX  98
DECORAH *      SUNNY     84  73  70 S12       29.95S HX  91
DUBUQUE        SUNNY     85  72  65 S14       29.99F HX  91
MONTICELLO *   SUNNY     88  73  62 S10G17    29.97F HX  96
OELWEIN *      SUNNY     84  75  74 S10G17    29.97F HX  92
WATERLOO       MOSUNNY   86  73  65 S10       29.94F HX  93
$$

IAZ064-065-067-068-078-012100-
   EAST CENTRAL IOWA

CITY           SKY/WX    TMP DP  RH WIND       PRES   REMARKS
DAVENPORT      SUNNY     89  72  56 S12       30.00F HX  96
IOWA CITY      SUNNY     89  72  56 SW8       29.98F HX  96
MT. PLEASANT * SUNNY     93  63  36 SW10      30.00S HX  94
MUSCATINE *    SUNNY     93  68  43 S14       29.98F HX  97
QUAD CITIES    SUNNY     91  71  51 SW9       29.98F HX  97
$$

IAZ062-063-075>077-085>089-095>099-012100-
   SOUTHEAST IOWA

CITY           SKY/WX    TMP DP  RH WIND       PRES   REMARKS
BURLINGTON     SUNNY     92  70  48 SW10      30.00F HX  97
FAIRFIELD *    SUNNY     91  68  46 SW12      30.00S HX  95
FORT MADISON * SUNNY     90  72  55 S7        30.02S HX  96
KEOKUK *       MOSUNNY   91  68  46 SW13      30.00F HX  95
OSKALOOSA *      N/A     91  70  49 SW12      29.99S HX  97
CENTERVILLE *  SUNNY     86  72  62 S12       30.02F HX  92
OTTUMWA        SUNNY     89  72  56 SW12      29.97F HX  96
WASHINGTON *     N/A    N/A N/A N/A MISG        N/A
$$

ABBREVIATIONS USED IN REMARKS
   TC - TEMPERATURES IN CELSIUS
  WCI - WIND CHILL INDEX
   HX - HEAT INDEX
  VSB - VISIBILITY
$$



USA.gov is the U.S. government's official web portal to all federal, state and local government web resources and services.